Погода в Отрадном

Россия / Республика Крым     44°30′13″N   34°12′47″E
темп.,
°C
ветер,
м/с
пор.,
м/с
влажн.,
%
обл.,
%
осадки,
мм/ч
давл.,
гПа
погр.,
м
20 апреля, вт
вт2000:00+9св4494100 0.9 1010150
03:00+9ссв3396100 4.8 1008124
06:00+8ююз2399100 1.3 1007203
09:00+10юз7129041 1.4 1006541
12:00+9зюз10148859 0.0 1006779
15:00+9зюз11158428 0.1 1007991
18:00+9з678435 0.1 1008309
21:00+9зсз348333 0.1 1012140
21 апреля, ср
ср2100:00+8сз338017 0.0 101444
03:00+8сз237969 0.0 101542
06:00+9зсз227889 0.0 101633
09:00+10зюз347544 0.0 1017272
12:00+10зюз567936 0.5 1018351
15:00+10юз678033 1.1 1018311
18:00+11зюз567616 0.3 1018327
21:00+9з44812 0.3 102056
22 апреля, чт
чт2200:00+9зсз33750 0.0 102032
03:00+8зсз337624 0.0 102145
06:00+8сз117326 0.0 102213
09:00+10ю226811 0.0 1022172
12:00+11ююз457431 0.1 1023470
15:00+10юз457631 0.3 1023164
18:00+11юз457512 0.1 102296
21:00+10з23792 0.2 102328
23 апреля, пт
пт2300:00+9зюз22780 0.0 102326
03:00+9зюз22710 0.0 102317
06:00+8з1178100 0.0 102311
09:00+10юв117868 0.0 1023112
12:00+10ююв127488 0.0 1022259
15:00+10юв1273100 0.0 1021219
18:00+10в1273100 0.0 1020112
21:00+10всв1176100 0.0 102114
24 апреля, сб
сб2400:00+9зсз22803 0.0 102021
03:00+9зюз11780 0.0 101811
06:00+9з337130 0.0 101842
09:00+12з236534 0.0 1018187
12:00+14ссз23605 0.0 1019486
15:00+13всв2461100 0.0 1019524
18:00+12св2360100 0.0 1020237
21:00+9ссв4479100 0.0 102160